TimePST,TemperatureF,Dew PointF,Humidity,Sea Level PressureIn,VisibilityMPH,Wind Direction,Wind SpeedMPH,Gust SpeedMPH,PrecipitationIn,Events,Conditions,WindDirDegrees,DateUTC
12:52 AM,26.1,16.0,66,30.27,10.0,NE,5.8,-,N/A,,Clear,40,2012-11-11 08:52:00
1:52 AM,26.1,15.1,63,30.27,10.0,NE,5.8,-,N/A,,Clear,50,2012-11-11 09:52:00
2:52 AM,25.0,15.1,66,30.27,10.0,NE,6.9,-,N/A,,Clear,50,2012-11-11 10:52:00
3:52 AM,27.0,12.9,56,30.27,10.0,Variable,6.9,-,N/A,,Clear,0,2012-11-11 11:52:00
4:52 AM,27.0,12.9,56,30.27,10.0,NE,5.8,-,N/A,,Clear,40,2012-11-11 12:52:00
5:52 AM,27.0,12.0,53,30.29,10.0,NE,4.6,-,N/A,,Clear,50,2012-11-11 13:52:00
6:52 AM,28.9,10.0,45,30.30,10.0,Calm,Calm,-,N/A,,Clear,0,2012-11-11 14:52:00
7:52 AM,30.9,10.0,42,30.32,10.0,Calm,Calm,-,N/A,,Clear,0,2012-11-11 15:52:00
8:52 AM,32.0,10.9,42,30.33,10.0,West,3.5,-,N/A,,Clear,260,2012-11-11 16:52:00
9:52 AM,34.0,15.1,46,30.35,10.0,Calm,Calm,-,N/A,,Clear,0,2012-11-11 17:52:00
10:52 AM,35.1,16.0,46,30.36,10.0,Calm,Calm,-,N/A,,Clear,0,2012-11-11 18:52:00
11:52 AM,36.0,21.0,55,30.35,10.0,WNW,3.5,-,N/A,,Clear,290,2012-11-11 19:52:00
12:52 PM,36.0,23.0,59,30.35,10.0,SW,4.6,-,N/A,,Clear,230,2012-11-11 20:52:00
1:52 PM,37.0,25.0,62,30.33,10.0,Calm,Calm,-,N/A,,Clear,0,2012-11-11 21:52:00
2:52 PM,37.0,26.1,65,30.35,10.0,Calm,Calm,-,N/A,,Mostly Cloudy,0,2012-11-11 22:52:00
3:52 PM,37.0,25.0,62,30.35,10.0,Calm,Calm,-,N/A,,Clear,0,2012-11-11 23:52:00
4:52 PM,33.1,27.0,78,30.36,10.0,Calm,Calm,-,N/A,,Clear,0,2012-11-12 00:52:00
5:52 PM,33.1,27.0,78,30.38,10.0,Calm,Calm,-,N/A,,Mostly Cloudy,0,2012-11-12 01:52:00
6:52 PM,37.0,27.0,67,30.35,10.0,Variable,3.5,-,N/A,,Scattered Clouds,0,2012-11-12 02:52:00
7:52 PM,39.0,21.0,49,30.33,10.0,Calm,Calm,-,N/A,,Clear,0,2012-11-12 03:52:00
8:52 PM,37.9,18.0,45,30.35,10.0,SSE,3.5,-,N/A,,Clear,160,2012-11-12 04:52:00
9:52 PM,37.9,19.0,47,30.35,10.0,Calm,Calm,-,N/A,,Clear,0,2012-11-12 05:52:00
10:52 PM,37.0,18.0,46,30.35,10.0,Calm,Calm,-,N/A,,Clear,0,2012-11-12 06:52:00
11:52 PM,36.0,19.0,50,30.35,10.0,Calm,Calm,-,N/A,,Clear,0,2012-11-12 07:52:00